STARLINK-5749, 55569

Orbit data source: Space-Track

STARLINK-5749, 55569 is a payload satellite owned by SpaceX/Seattle (US) in LEO that was launched on Sun, 12 Feb 2023 UTC via an FALCON 9 launch vehicle from the Air Force Eastern Test Range (AFETR). Payload-class satellites include a variety of spacecraft equipped with specific instruments for various scientific and technological missions. These include communications satellites like Starlink; space stations such as the ISS; scientific satellites like the Hubble; Earth observation satellites from companies like Planet Labs, Umbra, and HawkEye 360; GPS; miniature CubeSats for education and research; and military/defense satellites.

Loading next visibility...
Identifier
55569, 2023-020A
Orbit
LEO
Country
Flag of USUS
Related business
Manufacturer
SpaceX/Seattle
Mission
Operational spacecraft
Bus & Motor
STARLINK, Unknown motor
Mass
305 kg wet, ~290 kg dry
Launch date (UTC)
2023-02-12 (3 years ago)
Launch vehicle
FALCON 9
Launch site
Air Force Eastern Test Range (AFETR)
Object type
Payload
Rocket body
Debris
Shape & HBR
Unknown shape, 10.1 m
Radar Cross Section
Large (>1 m²)

Expand to show TLE details & history
Last TLE update: 13 hours ago

TLE from 13 hours ago
0 STARLINK-5749
1 55569U 23020A   25340.61121300  .00015423  00000-0  11524-2 0  9995
2 55569  43.0014 150.7662 0000784 244.2083 115.8679 15.02598400155982
Epoch: 2025-12-06T14:40Z
TLE epoch observation values (Epoch: 2025-12-06T14:40:08.803Z)
Latitude
0.00003°
Longitude
-144.90692°
Altitude
558.903 km
Speed
7.584 km/s
True Right ascension
10h 03m 03s
True Declination
0° 00' 00"
Sunlit
Object was in daylight at epoch
Visualization orbit readout
Latitude
Unknown
Longitude
Unknown
Altitude
Unknown
Speed
Unknown
Apparent Right ascension
Unknown
Apparent Declination
Unknown
Sunlit
N/A
Visualization observer readout
Local Sidereal Time
02:09:03
Azimuth
Unknown
Elevation
Unknown
Doppler factor
Unknown
Orbital elements
Apogee altitude
561.355 km
Perigee altitude
560.267 km
Semi-major axis
6,938.948 km
Eccentricity
0.00008
Inclination
43.0014°
RAAN
150.7662°
Arg. of periapsis
244.2083°
True anomaly
115.87598°
Mean anomaly
115.8679°
Eccentric anomaly
115.87194°
Mean motion
3.75494 °/min
Orbital period
95.87 mins
BSTAR
0.0011524
Loading maneuver chart data...
Computing Atmospheric mass density...
Loading historical data...
Loading historical data...
Loading historical data...
Loading historical data...
Loading historical data...
Loading historical data...
Loading historical data...

Documentation

Showing up to 5 results
|